RH
62 63 65 64 59 51 47 44 38 34 29 24 20 16 15 12 11 10 7 6 5 6 6 5 5 5 6 8 11 19 30 39 42 41 41 39 36 34 33 35 39 39 34 28 28 31 31 31 31 33 36 40 42 41 39 36 33 31 32 32 35 38
65 67 67 66 60 52 47 45 40 36 32 27 23 19 16 14 12 10 8 6 6 6 6 7 6 6 6 7 11 19 29 39 42 41 43 45 46 45 42 41 40 39 37 32 31 31 32 33 33 35 38 41 43 44 45 44 45 46 48 50 51 49
69 72 70 67 63 54 48 46 42 37 34 31 27 23 19 15 12 11 9 7 6 6 6 7 7 6 6 8 17 25 33 40 41 41 43 47 49 49 48 47 46 43 40 38 37 38 39 39 38 40 42 45 47 50 51 51 53 56 58 59 55 46
72 74 72 70 64 56 49 46 43 39 36 34 31 27 23 18 14 12 9 7 6 6 7 7 7 6 7 12 24 33 37 40 42 43 44 48 50 49 50 52 53 50 47 46 47 48 46 44 43 45 49 53 58 61 60 56 56 57 57 52 44 34
74 75 74 72 66 58 51 46 44 41 38 36 34 30 25 21 16 13 10 7 6 6 6 7 7 6 8 17 28 36 40 42 44 46 48 51 51 50 51 57 60 58 57 56 55 53 50 48 48 52 58 64 70 70 66 62 59 55 49 42 34 30
75 77 76 75 70 62 52 47 45 42 39 38 37 33 28 22 18 14 10 8 6 6 6 7 7 5 7 17 29 34 37 42 46 49 52 53 51 50 54 61 65 66 65 62 59 56 53 52 54 59 67 72 75 73 69 66 59 53 46 38 33 33
79 80 79 77 74 67 57 49 46 43 40 39 39 35 30 24 19 16 11 8 6 6 6 6 7 6 5 12 24 29 31 38 46 50 52 50 49 56 65 68 69 71 69 64 61 59 57 56 60 67 73 74 74 72 70 66 58 52 46 39 36 36
82 83 81 79 76 72 62 51 47 45 41 41 40 37 33 29 23 18 12 8 6 6 7 7 6 6 5 7 14 20 24 32 43 48 48 45 47 62 74 75 73 74 70 65 62 61 59 60 66 72 73 72 70 69 68 64 58 51 44 40 38 37
80 81 81 80 78 74 66 53 48 47 43 41 41 39 37 34 26 19 13 8 6 6 7 7 6 5 4 5 7 12 18 29 41 44 41 39 42 60 77 79 77 74 69 65 63 60 60 64 69 73 72 70 69 67 65 60 54 48 42 39 37 38
77 77 78 81 81 76 66 54 49 48 45 42 41 40 39 36 27 20 14 8 7 7 7 6 5 4 3 4 5 8 15 28 40 42 38 34 36 57 79 82 79 73 69 67 64 61 63 67 72 74 72 70 69 67 62 56 50 44 39 37 39 44
76 75 76 82 84 77 64 53 51 50 46 42 41 41 40 36 27 20 15 9 7 7 7 6 5 4 3 4 6 10 17 30 42 42 36 29 36 62 82 82 77 73 71 69 66 64 65 69 73 74 73 71 69 66 59 51 46 41 39 41 45 49
77 72 77 85 83 72 60 54 54 52 47 43 42 42 41 37 29 21 15 9 7 7 7 6 4 4 6 8 11 16 24 34 42 40 32 34 51 74 84 78 74 72 72 72 69 67 67 71 74 74 72 70 68 63 55 48 46 45 45 47 49 53
70 72 83 86 75 62 57 56 56 52 47 43 43 42 41 39 33 22 14 9 6 7 7 5 5 7 11 15 20 26 31 36 40 35 35 52 73 84 83 76 72 73 74 73 71 69 70 72 73 72 71 68 66 62 54 51 51 49 48 48 52 56
68 79 88 79 65 58 57 58 56 52 46 44 44 42 41 40 35 25 14 9 6 7 7 6 8 13 19 25 31 36 36 38 38 36 49 72 87 89 83 75 70 72 75 74 72 70 71 71 72 72 70 67 64 60 57 56 53 48 48 52 57 52
80 86 81 69 63 61 59 58 55 50 46 46 43 40 39 37 34 27 15 8 7 7 7 7 12 19 26 33 40 42 40 39 36 44 67 85 93 93 85 75 68 68 72 73 71 71 70 72 73 73 69 65 61 59 58 53 48 46 50 58 57 40
82 77 70 67 66 63 59 56 53 50 47 45 40 37 36 33 32 27 16 8 7 7 7 8 14 23 31 38 45 45 42 39 36 53 78 89 93 93 85 77 69 66 68 69 69 69 70 73 75 73 69 64 59 56 51 47 45 49 57 61 48 27
72 69 69 68 65 61 58 55 52 50 46 42 38 35 33 32 33 28 16 8 8 8 7 9 15 25 32 38 45 46 45 40 41 61 81 87 90 89 83 76 71 69 67 66 66 67 70 75 76 74 68 61 55 50 46 46 50 57 63 54 32 19
72 71 70 66 62 59 56 54 51 46 43 40 38 35 31 33 35 27 15 9 9 9 8 10 14 21 30 37 43 48 49 46 51 69 80 83 85 83 78 75 72 71 68 66 67 69 72 78 80 74 66 59 53 50 50 52 56 63 58 37 21 19
76 73 68 62 59 57 53 50 46 43 42 39 37 34 29 32 34 25 14 10 10 9 9 9 12 20 32 41 46 52 54 53 61 75 81 81 81 79 76 75 74 72 70 69 71 74 77 82 83 75 67 62 59 58 57 58 63 61 42 23 20 22
76 71 64 58 55 50 46 43 41 39 37 35 34 32 28 28 31 24 15 11 11 10 9 9 17 31 41 47 52 57 60 61 70 81 83 81 80 78 76 77 77 76 74 73 75 79 82 84 83 78 73 68 67 65 61 64 64 47 27 20 22 21
70 62 56 52 47 40 36 32 30 30 29 29 29 29 27 25 27 24 17 13 11 11 8 10 27 45 53 55 55 58 63 67 74 82 86 85 82 79 77 78 80 81 78 75 79 85 84 83 81 80 79 76 74 69 66 67 56 32 21 22 22 20
61 55 51 46 40 41 43 35 26 23 22 23 24 26 27 24 24 23 20 16 12 11 9 13 32 47 55 60 60 61 68 74 77 81 86 87 85 82 80 80 83 85 81 79 83 88 86 83 81 81 82 82 78 72 70 63 42 24 22 23 21 20
57 52 45 40 40 49 55 47 33 22 16 17 19 23 25 23 23 22 23 21 14 11 10 16 31 39 48 61 65 67 74 81 82 82 85 89 88 85 83 84 86 87 84 83 86 88 87 86 85 85 84 83 80 73 67 53 31 22 23 23 22 20
62 57 44 37 42 49 52 50 41 25 15 14 16 20 22 22 21 20 25 26 16 11 12 19 29 34 45 59 67 73 79 85 87 87 87 90 92 91 89 89 89 90 87 85 86 88 88 87 87 87 86 83 78 71 62 42 25 23 23 22 21 19
71 68 55 41 42 48 49 48 42 25 14 12 14 18 19 20 20 19 27 30 17 12 16 22 27 33 44 57 68 76 81 85 88 90 91 92 94 93 90 91 93 93 91 88 88 87 85 86 86 84 85 82 75 69 54 33 24 24 23 22 21 19
74 74 64 49 46 48 45 40 34 20 11 11 13 16 16 18 19 19 30 32 18 16 22 23 26 34 44 54 63 72 79 80 81 85 90 89 88 85 82 85 93 96 95 94 91 88 86 87 85 82 83 80 74 65 46 28 24 25 24 23 21 19
73 73 66 55 50 46 38 30 22 13 9 10 12 14 14 16 18 22 35 32 18 21 29 30 32 39 43 44 50 63 72 74 73 71 75 77 73 72 73 76 84 93 97 99 95 91 91 91 86 82 81 76 71 60 40 26 25 25 25 24 21 20
71 70 66 57 50 43 32 21 12 8 9 10 11 12 12 16 21 29 39 29 16 24 38 41 42 39 32 28 42 62 67 66 63 53 57 70 67 65 74 79 83 93 98 100 98 92 92 93 90 85 80 73 67 54 36 26 25 25 25 24 22 21
67 67 63 55 48 39 24 14 9 10 13 13 14 14 14 19 27 35 38 25 14 26 41 42 35 26 18 24 49 71 69 57 50 44 49 70 78 75 82 87 88 94 97 99 100 95 90 90 92 88 81 73 64 50 35 28 26 26 26 24 23 22
62 63 57 49 42 30 16 9 10 16 20 20 20 18 19 25 31 37 32 19 13 23 33 26 17 14 17 33 55 69 68 53 43 45 47 59 77 84 86 90 89 87 89 96 101 97 89 88 92 90 81 72 63 49 36 28 26 26 26 25 24 23
58 56 48 41 35 23 12 9 15 23 24 21 22 20 21 25 31 33 24 13 11 18 20 12 9 12 19 34 45 52 62 55 41 42 43 47 59 67 73 86 91 83 82 93 101 98 91 88 92 90 80 70 61 50 38 30 27 27 27 26 25 24
56 50 39 34 30 18 9 10 19 24 21 21 24 22 21 22 26 26 16 10 11 12 11 6 7 15 25 38 41 41 46 42 34 36 43 48 49 56 68 80 89 86 84 95 100 97 91 89 91 88 78 68 60 52 42 33 29 28 28 27 26 25
55 47 35 29 23 12 7 12 20 20 16 19 23 22 21 21 21 18 10 9 9 8 6 5 11 22 36 49 46 38 34 32 35 38 45 49 45 54 65 73 86 89 87 96 98 94 92 89 88 85 79 70 62 55 46 37 32 30 29 28 27 27
52 39 27 23 17 9 8 13 18 16 13 17 19 18 18 15 14 11 8 9 7 5 5 10 22 33 40 42 37 33 32 34 40 42 44 44 40 47 52 62 86 94 90 97 96 90 88 87 87 86 81 74 66 59 51 42 36 32 30 29 29 28
43 28 21 18 13 9 9 13 17 15 12 16 17 14 12 9 9 8 7 8 5 5 7 13 32 51 51 39 30 29 32 36 41 41 39 36 38 44 44 58 87 95 91 98 97 89 83 84 90 92 87 79 69 62 57 50 40 34 32 30 29 29
30 21 20 18 14 11 9 12 16 13 12 17 16 10 7 7 7 7 7 7 4 4 8 17 37 56 53 36 27 28 31 34 35 35 35 36 40 46 49 63 84 89 89 96 99 94 87 87 95 99 95 84 71 64 61 53 44 37 34 30 30 30
20 17 20 19 16 11 9 12 15 12 12 16 15 8 5 6 6 7 6 5 5 5 9 20 34 43 38 26 23 25 27 28 29 31 37 41 45 56 69 81 88 90 91 93 96 95 90 91 97 101 98 86 74 67 62 56 49 43 37 33 32 31
Wind_Speed
12 12 12 11 10 10 8 7 7 8 10 12 13 14 15 15 14 14 13 13 12 11 10 9 9 9 9 9 9 9 8 8 7 8 8 8 8 8 8 7 7 8 9 10 11 12 12 12 12 11 11 10 10 11 11 11 10 10 10 10 11 11
13 12 12 12 11 10 9 8 7 9 10 12 14 15 16 16 15 14 13 13 13 11 10 9 9 9 8 9 9 9 8 8 8 8 8 8 8 8 8 8 8 9 10 10 11 12 12 12 13 12 12 11 11 11 11 11 10 10 9 9 10 10
13 12 11 12 11 11 10 9 8 9 10 12 14 15 16 17 17 15 14 14 13 12 10 9 9 9 8 9 8 8 8 8 9 9 9 8 8 8 9 9 10 10 10 11 12 13 13 12 13 12 12 12 12 11 11 11 10 9 9 9 10 10
13 12 11 11 11 11 11 10 9 9 11 13 14 15 17 18 18 16 15 14 14 13 11 10 9 9 9 8 8 8 8 9 9 9 9 9 9 9 10 10 11 11 11 11 12 13 13 13 13 13 13 13 12 11 11 10 10 10 9 9 10 11
15 13 12 11 11 11 11 11 9 10 11 13 15 16 17 18 18 17 16 15 14 14 12 11 10 10 9 8 8 9 9 10 10 10 10 9 9 10 11 12 12 12 11 11 13 14 14 13 13 12 12 12 11 11 10 10 9 9 9 9 10 12
17 15 14 13 12 12 12 12 10 10 12 14 15 17 18 19 19 18 17 16 16 15 14 13 12 11 11 9 9 10 10 11 11 10 10 10 10 11 11 12 12 12 11 12 13 14 14 13 13 12 12 11 11 10 10 9 9 9 9 10 11 12
19 17 15 15 15 14 14 13 11 11 13 14 16 17 18 19 19 19 17 17 16 16 15 15 14 13 12 11 11 12 12 12 11 11 11 11 11 11 11 12 12 11 11 13 14 15 14 13 12 11 11 11 11 10 10 10 9 9 10 11 11 12
20 19 18 18 18 18 16 14 12 12 13 15 16 17 19 20 20 19 18 17 17 16 16 16 16 15 14 13 13 13 13 12 11 12 12 12 11 11 11 12 11 11 12 14 15 15 14 12 11 10 10 11 11 11 11 10 9 9 10 11 11 12
21 21 22 22 22 21 18 15 13 13 14 15 16 18 19 21 21 20 19 18 17 16 16 17 17 16 15 14 14 14 13 12 11 12 12 12 11 11 11 11 11 11 12 14 15 14 13 11 10 10 11 12 12 12 11 10 9 10 11 11 11 12
21 23 25 26 25 22 19 16 14 14 15 15 16 18 20 22 22 20 19 18 17 17 17 17 18 17 16 14 14 13 12 11 11 12 12 12 11 11 11 11 11 12 13 14 14 13 11 10 10 11 12 13 12 12 11 10 10 11 11 10 10 12
22 24 26 27 26 23 19 16 15 15 16 16 17 18 20 21 22 20 19 18 18 18 18 18 18 17 16 14 13 13 12 12 12 12 12 11 11 11 10 11 11 13 14 14 14 12 11 10 10 11 12 12 12 11 11 11 11 11 11 10 10 12
26 26 27 27 25 21 19 16 15 16 17 17 17 19 20 21 21 21 19 18 18 18 19 18 17 17 16 14 13 13 13 12 12 13 12 10 10 10 10 11 12 14 14 13 13 12 10 10 10 11 11 12 12 12 12 12 12 12 11 11 11 12
29 27 27 26 23 20 19 17 16 17 17 18 18 19 20 21 21 21 20 19 18 19 19 18 17 16 16 14 14 14 13 13 13 12 11 9 9 9 10 12 13 13 13 12 12 11 10 10 10 10 11 11 12 12 12 13 12 12 12 12 12 12
29 28 27 25 22 20 19 18 17 17 18 19 19 19 20 21 22 22 20 19 19 19 19 18 16 16 16 15 14 14 14 14 13 11 10 9 9 10 11 12 13 13 12 12 11 11 10 10 10 10 10 11 12 12 12 13 13 12 13 13 13 13
28 28 27 24 22 21 19 18 17 17 19 20 19 20 21 22 23 23 21 20 19 20 20 18 16 15 15 15 15 14 15 15 14 11 10 10 10 11 12 13 12 12 12 12 12 11 11 10 9 9 10 11 11 12 13 13 13 13 14 14 14 15
27 27 25 23 22 21 19 18 17 18 19 20 20 20 22 23 24 23 21 20 19 20 20 18 16 15 15 15 15 15 15 15 14 12 10 11 11 12 13 13 13 12 13 13 12 12 11 10 9 9 10 11 12 12 13 13 13 14 14 15 15 15
27 25 24 22 21 19 18 18 17 18 20 21 21 21 22 23 23 23 21 20 19 20 20 17 15 15 15 15 15 15 15 15 14 13 12 12 12 13 14 14 13 13 14 14 13 13 11 10 9 9 10 11 12 13 13 13 14 14 15 15 15 15
24 24 22 20 19 17 17 17 18 19 20 22 22 22 22 22 23 22 21 19 19 19 19 17 15 15 15 16 15 15 16 16 15 13 13 13 14 14 14 14 14 14 15 15 14 12 11 10 9 10 11 11 12 13 14 14 14 14 15 15 15 14
23 22 20 18 16 15 16 17 19 19 21 23 23 23 21 21 23 22 20 19 19 19 18 16 15 15 16 16 16 15 16 16 15 14 14 14 15 15 14 14 14 15 15 15 14 12 11 10 10 11 12 13 14 14 14 14 14 15 15 15 14 14
21 19 17 15 14 15 16 18 20 20 22 24 23 23 22 22 23 22 21 20 19 19 18 16 16 16 17 17 15 16 17 16 15 15 15 15 16 15 15 15 15 16 15 14 13 12 11 11 11 12 13 14 15 14 14 14 14 15 14 14 14 14
19 18 16 16 16 15 15 17 19 21 22 23 24 24 24 24 24 23 22 21 20 20 19 17 16 16 17 17 16 16 17 17 17 16 16 16 16 16 16 15 15 16 16 14 13 12 12 13 13 14 14 15 15 15 14 15 14 14 14 14 14 14
20 19 18 19 17 14 15 17 20 22 23 23 24 24 25 25 24 23 23 22 21 21 19 17 17 17 17 17 16 16 17 17 18 18 18 17 17 17 17 16 15 16 17 15 13 13 14 15 15 15 16 16 16 16 15 15 15 14 14 14 14 15
22 20 22 23 19 16 19 20 22 24 24 24 24 25 26 26 25 24 24 23 22 21 20 18 17 18 17 17 17 17 17 18 19 19 19 18 18 18 18 17 16 17 17 16 14 14 15 16 16 16 17 17 17 17 16 15 15 15 14 14 15 16
26 25 25 27 22 20 21 22 25 27 27 26 25 26 26 26 25 24 24 24 22 21 20 19 18 18 18 17 17 18 18 19 20 20 20 20 19 19 19 18 17 18 18 17 16 16 17 17 17 18 18 18 18 17 15 15 15 15 15 15 16 16
31 30 30 31 27 23 23 25 28 30 29 28 27 26 26 26 26 25 25 24 22 21 21 21 20 19 18 18 17 18 19 19 20 20 20 21 20 20 20 20 19 19 19 18 17 17 18 18 19 19 18 18 17 17 16 15 15 15 16 16 17 17
34 34 34 33 28 25 25 27 29 31 30 28 28 28 27 26 26 25 25 23 21 21 22 22 22 20 19 18 18 18 19 19 19 20 20 21 21 21 21 21 20 20 20 19 19 19 19 19 19 19 18 18 18 17 16 15 15 15 16 17 17 17
35 35 35 33 29 26 27 29 30 30 29 28 29 29 28 26 26 25 24 23 21 21 23 23 23 22 21 19 19 19 19 19 19 19 20 21 21 22 22 22 21 20 20 21 20 20 20 20 20 20 19 19 19 18 17 16 16 16 17 17 18 18
36 36 35 33 30 28 29 30 29 28 29 29 30 30 28 26 25 24 24 23 21 22 23 23 23 23 22 20 19 18 18 19 20 20 20 21 21 21 22 22 21 20 21 23 22 21 21 21 20 20 20 20 19 19 18 17 17 17 17 18 18 19
36 36 36 35 32 30 30 29 27 28 28 29 30 30 28 25 24 24 24 23 22 22 23 23 23 23 21 20 19 18 19 19 20 20 20 20 21 22 22 22 22 21 23 24 24 22 21 21 21 20 20 20 20 20 19 18 17 18 18 18 19 19
37 38 39 37 32 29 29 28 27 27 27 28 29 29 26 24 23 24 24 23 22 23 23 23 23 21 20 19 19 19 20 20 19 19 20 20 21 22 24 25 25 24 26 26 25 23 21 21 21 21 21 21 20 21 20 19 18 19 19 19 19 20
38 39 40 35 29 28 28 28 28 27 26 27 28 27 25 23 23 24 24 23 22 23 23 22 22 20 19 19 19 19 21 21 19 19 20 20 21 21 23 26 27 27 29 28 24 21 21 21 21 21 21 21 21 22 21 20 20 20 20 20 20 21
39 39 38 32 27 28 29 28 28 26 26 27 28 26 24 23 24 24 24 22 22 22 22 22 21 19 19 20 19 19 21 21 20 20 19 19 21 21 21 24 26 27 28 27 22 19 20 20 20 20 21 22 22 22 22 21 21 21 21 21 21 22
39 40 37 31 27 29 30 29 28 26 26 27 26 25 23 23 23 23 23 22 21 21 21 21 20 18 19 20 19 20 21 21 20 19 18 19 20 21 21 22 25 27 27 25 21 18 19 19 19 20 21 22 23 23 23 22 22 22 22 23 23 23
41 40 35 29 28 30 31 30 29 27 27 27 25 23 22 22 23 23 22 21 21 20 20 20 20 19 19 19 20 20 20 19 19 18 18 20 20 21 22 22 24 25 23 22 20 19 19 19 20 21 21 22 24 24 24 24 23 23 23 24 24 24
43 39 32 27 29 31 31 30 29 28 27 26 24 23 22 22 22 22 22 21 20 20 20 19 19 20 20 19 20 20 19 19 19 19 20 21 21 22 23 22 21 20 19 20 21 20 19 20 20 21 22 23 24 25 25 25 24 24 25 25 26 26
42 36 30 28 29 31 32 31 30 29 27 24 23 22 22 22 22 23 22 21 20 20 19 18 19 21 21 20 20 20 20 20 20 20 20 21 21 22 22 21 20 19 18 19 20 20 20 20 20 21 22 23 24 25 26 25 25 25 26 27 27 27
39 33 29 28 28 31 33 32 31 31 27 24 23 22 22 22 23 23 21 20 20 19 18 18 19 21 21 21 21 20 20 20 20 20 20 21 21 20 21 20 18 18 18 19 20 21 21 20 20 21 22 23 24 26 26 26 26 27 28 29 29 29
Wind_Direction
267 278 284 289 278 264 267 279 300 317 328 338 342 341 339 335 333 330 329 330 330 331 331 330 326 322 323 322 319 312 307 303 303 303 304 306 306 307 310 311 309 305 304 308 312 311 311 311 309 308 305 301 298 296 297 298 300 302 302 301 301 301
268 277 282 286 277 261 260 269 289 310 327 337 341 341 339 336 334 331 330 328 327 327 327 327 323 318 318 318 314 307 301 296 296 297 298 300 302 304 306 304 300 297 300 307 311 310 309 307 305 304 301 298 296 295 296 297 298 300 301 301 300 299
264 274 283 287 277 261 256 262 281 305 325 334 337 338 338 337 334 331 329 327 324 322 323 323 318 314 313 312 306 298 293 290 291 294 295 295 297 300 300 297 294 293 298 307 309 307 305 303 302 301 300 298 296 296 295 295 295 296 296 297 297 293
258 269 285 291 280 263 255 258 275 301 318 326 331 334 336 337 334 331 328 325 321 318 319 318 314 311 308 303 293 286 284 283 287 290 290 290 293 295 294 292 290 292 298 305 305 302 300 299 300 301 300 299 298 297 294 293 292 291 292 292 289 285
252 264 281 289 282 265 256 257 271 295 310 318 325 329 333 335 332 329 326 323 319 316 315 313 311 308 303 292 280 276 276 278 282 285 285 285 288 291 289 287 288 292 299 302 300 296 295 296 299 302 302 301 300 298 295 293 291 290 289 284 281 282
248 260 275 283 284 271 260 260 269 288 303 311 319 325 331 332 329 326 325 323 319 316 313 310 308 305 298 285 272 270 271 273 277 279 279 280 286 288 285 285 287 293 298 298 294 291 292 296 302 306 306 302 299 297 294 292 289 288 285 280 279 283
246 257 268 277 282 276 266 262 267 281 296 305 312 322 328 328 326 324 323 322 320 317 312 308 306 302 294 283 271 267 267 269 273 275 276 279 284 287 285 284 286 291 294 290 288 290 293 299 306 310 307 301 298 294 291 289 287 284 281 278 279 284
246 256 266 272 277 275 269 263 264 276 290 300 307 317 324 324 323 322 322 320 319 316 311 308 305 300 293 285 276 268 267 268 271 273 275 278 281 284 286 284 284 287 286 284 287 291 295 303 310 311 305 299 297 296 293 289 284 279 276 275 278 284
247 256 263 268 272 270 266 262 262 272 285 294 302 312 319 320 321 320 319 318 317 314 310 306 303 299 293 286 279 271 268 269 269 272 275 277 279 282 284 282 282 282 281 283 287 291 297 305 309 306 301 298 298 297 294 288 281 275 271 273 280 288
250 257 262 266 266 262 262 261 262 270 281 290 298 307 313 317 319 318 316 315 314 311 307 304 301 298 293 285 278 272 269 267 267 270 275 278 279 279 279 280 282 280 281 284 287 291 298 303 305 302 298 297 298 296 292 284 277 270 269 275 284 292
256 262 262 264 260 255 257 259 261 268 278 287 294 303 308 314 317 316 314 312 311 308 304 301 300 297 292 284 278 273 269 267 267 272 277 280 277 273 276 281 282 280 282 286 289 292 297 300 301 298 295 296 296 292 286 277 272 270 273 281 287 293
261 264 259 257 254 250 253 257 260 267 277 285 291 299 303 310 316 314 311 310 308 306 302 299 298 295 290 283 277 272 269 267 270 275 280 281 272 268 275 281 280 280 284 287 289 292 295 299 298 292 291 292 289 284 278 273 272 276 281 285 289 292
260 259 253 248 246 246 250 254 258 266 276 282 288 295 298 305 314 313 309 307 306 304 300 297 296 293 288 282 274 271 270 269 271 276 281 275 262 265 274 277 279 281 284 286 286 289 291 293 290 287 286 283 280 277 275 275 277 281 285 287 289 293
254 248 242 239 239 243 248 252 257 265 274 279 285 291 294 301 310 311 308 304 303 303 299 295 294 290 284 278 273 273 273 272 272 275 277 266 254 264 274 277 280 283 285 283 282 284 285 284 283 280 278 276 277 275 275 277 281 285 287 288 293 301
241 234 232 233 236 240 245 251 257 263 271 277 282 289 293 301 307 307 305 301 300 302 300 294 290 285 279 275 274 275 276 275 274 273 271 259 253 265 274 278 281 284 284 280 279 280 279 279 277 275 275 275 276 276 277 281 285 287 289 292 301 309
225 225 228 231 236 240 245 250 256 263 270 276 282 290 297 302 304 303 302 299 300 303 300 294 288 282 277 277 277 276 276 275 274 273 269 259 257 266 275 279 281 282 279 276 275 275 275 275 273 272 274 275 276 277 280 283 285 288 291 297 304 307
216 223 227 232 239 243 249 255 259 264 271 277 285 294 300 303 303 301 298 297 301 304 300 292 286 281 278 278 278 275 273 272 273 272 268 263 262 269 276 279 281 279 276 273 271 269 270 272 269 268 270 273 275 275 277 279 283 286 291 296 299 300
217 225 229 233 241 248 255 259 262 267 274 281 289 298 302 302 302 300 296 297 302 303 297 289 285 283 280 278 276 273 270 270 270 267 266 267 268 272 276 280 283 280 274 271 269 268 270 267 262 263 266 269 269 270 272 274 278 282 287 290 293 296
224 227 230 234 241 250 256 261 265 271 278 285 293 300 301 301 302 300 295 296 301 301 294 288 286 284 280 278 274 270 268 268 267 264 267 270 272 274 277 282 284 278 273 271 271 269 268 262 258 260 262 264 264 265 267 270 274 279 283 286 289 294
225 224 226 233 239 248 256 265 271 275 281 287 295 299 300 298 299 300 296 295 300 299 293 288 285 282 280 279 274 268 267 268 265 264 268 271 273 275 279 282 281 275 271 271 271 268 263 258 256 258 259 262 263 263 264 267 272 277 281 284 287 293
216 217 222 230 235 246 260 269 274 278 282 288 294 297 299 296 295 298 295 295 299 298 293 286 282 281 280 279 274 269 268 269 266 264 267 271 273 276 281 282 277 271 270 269 267 264 261 259 258 258 260 263 264 263 264 267 271 276 278 281 286 291
211 217 223 227 231 250 271 277 281 283 284 287 291 295 296 294 292 294 295 296 300 298 291 283 279 279 280 280 275 271 270 270 268 267 268 271 273 275 280 282 275 269 269 268 265 264 264 262 260 260 262 264 264 261 260 264 270 274 276 281 286 289
213 220 226 226 234 266 280 279 284 287 285 284 286 290 292 292 291 291 293 296 298 295 287 279 276 278 279 278 274 272 271 271 271 270 269 271 272 274 279 281 274 268 268 266 264 266 268 265 260 258 259 260 259 257 258 263 269 274 278 282 286 289
219 225 230 230 241 272 280 277 283 286 283 281 282 286 287 288 289 289 291 294 296 293 283 274 272 274 277 276 272 271 272 272 272 271 270 270 271 273 277 278 272 267 267 268 265 265 266 264 259 256 256 256 255 255 258 264 270 275 280 285 289 291
223 227 233 236 245 268 277 276 280 281 280 279 280 282 283 285 286 287 289 292 294 288 276 270 269 271 274 274 271 270 271 272 272 270 269 269 270 271 273 274 272 269 269 270 268 265 264 262 259 256 255 255 255 257 261 266 272 278 283 288 292 294
224 228 234 238 248 266 274 273 275 276 276 277 278 279 280 282 283 285 288 289 289 281 271 268 269 271 273 272 271 269 269 272 271 269 268 268 269 269 269 270 270 269 270 269 267 265 263 262 261 259 256 256 257 260 264 269 275 280 286 290 293 295
222 228 234 239 251 266 272 272 272 272 273 275 276 276 278 279 280 283 285 285 282 274 268 268 270 273 274 274 271 268 268 269 269 269 267 266 268 268 269 271 271 271 270 267 265 264 262 261 263 262 259 258 259 262 266 272 277 281 286 290 292 295
222 230 236 242 253 265 270 270 269 269 272 274 274 274 276 277 278 279 281 281 278 271 267 269 272 276 277 276 270 265 266 267 269 270 267 265 267 269 271 274 274 272 270 268 265 263 262 263 265 264 262 260 261 264 268 273 278 282 286 291 293 295
225 233 238 244 253 264 268 266 266 269 272 272 272 272 272 273 274 275 277 277 274 268 267 270 274 277 278 275 269 265 267 269 269 270 269 266 266 270 273 275 275 269 266 267 265 263 263 265 266 265 262 261 261 264 269 273 278 282 287 291 294 296
230 236 240 246 255 263 263 263 265 269 270 269 268 268 269 269 270 272 273 273 270 266 268 273 276 276 274 271 268 267 269 271 270 269 270 268 265 268 271 273 275 270 263 262 262 263 265 265 264 263 261 261 262 264 269 274 278 283 287 290 294 297
234 238 243 250 257 260 258 259 262 265 267 266 265 266 267 267 268 270 270 269 267 265 268 273 274 272 269 267 267 266 267 269 270 269 271 271 269 269 267 269 273 273 267 260 257 262 266 264 262 261 260 259 261 265 269 274 278 282 286 290 293 297
239 244 250 254 256 255 253 254 257 260 263 264 265 266 265 265 266 267 267 266 264 264 268 271 271 269 266 263 263 264 266 270 272 271 270 270 270 269 267 268 270 273 270 263 259 263 265 265 264 262 261 260 262 266 270 275 278 282 286 290 293 297
244 249 254 255 253 249 247 249 253 256 260 263 265 266 264 263 263 263 262 262 260 262 267 268 268 266 264 262 263 264 267 270 271 272 270 270 271 272 271 270 268 270 269 262 262 266 265 266 266 264 264 264 265 268 271 275 278 282 286 289 293 297
245 250 254 254 249 245 244 246 249 253 258 262 264 264 262 259 258 258 258 257 258 261 264 265 264 262 261 264 265 266 267 268 269 271 271 272 274 274 274 272 270 270 266 260 267 273 268 266 267 265 264 265 267 269 272 276 279 283 286 289 292 296
246 250 253 251 247 244 243 243 246 251 256 259 261 260 257 255 254 255 254 254 256 259 261 263 263 259 259 264 266 266 267 268 269 271 273 274 274 273 273 272 270 269 264 263 274 279 272 268 268 268 266 265 267 269 272 276 279 283 286 288 291 294
247 249 249 249 247 242 240 241 244 248 253 257 258 256 254 252 251 251 251 252 255 259 261 263 261 258 262 267 267 266 267 269 270 272 274 274 274 274 274 272 268 266 266 268 275 279 274 269 268 269 269 267 267 269 272 276 279 283 285 287 289 293
246 245 246 249 246 239 237 239 242 245 250 254 255 253 251 250 249 249 250 252 256 259 260 259 258 259 264 267 267 267 268 270 272 273 274 274 275 273 272 271 268 266 269 270 272 275 273 268 266 268 268 266 267 269 272 276 280 283 285 287 289 292